shoulder
new_line
new_line
first
second
third
Al di la della Luna; Beyond the Moon; Astrophotography; Astrofotografia; Danilo Pivato
 
 
         
         
2024
Orbital Elements

Epoch 2024 March. 14.0 TT = JDT 2460421.62390
T 2024 Apr. 21.13135 TT                                                     Rudenko
q   0.7807760            (2000.0)                        P                      Q
n   0.01383231    Peri.  198.98940     +0.14512799     -0.32931129   
a  17.1872415     Node  255.85600    +0.98565762     -0.13020074
e    0.9546180     Incl.      74.19140    +0.086112162   -0.93520150
P   71.36
Return in the future: 2095
       
Orbit Diagram
         
2024.02.19
2024.03.02
2024.03.07
2024.03.12 - 19h 06m
2024.03.12 - 19h 14m
         
         
2024.03.13
2024.03.14
2024.03.15
2024.03.16
2024.03.19
         
         
2024.03.20
2024.03.22
2024.03.24
2024.03.24 - 19h 12m
2024.03.27
         
         
2024.03.28
2024.04.01
2024.04.01 APO250
2024.04.02
2024.04.06
         
         
         
         
         
         

 

       
 
Since: 01/01/2004
 
           
Since: 01/11/2010